TimeMST,TemperatureF,Dew PointF,Humidity,Sea Level PressureIn,VisibilityMPH,Wind Direction,Wind SpeedMPH,Gust SpeedMPH,PrecipitationIn,Events,Conditions,WindDirDegrees,DateUTC
12:45 AM,53.6,50.0,88,29.88,10.0,West,6.9,-,N/A,,Clear,280,2013-01-07 07:45:00
1:52 AM,53.6,50.0,88,29.90,10.0,NW,5.8,-,N/A,,Clear,320,2013-01-07 08:52:00
2:45 AM,53.6,50.0,88,29.89,10.0,North,9.2,-,N/A,,Clear,10,2013-01-07 09:45:00
3:47 AM,53.6,50.0,88,29.89,10.0,North,8.1,-,N/A,,Clear,10,2013-01-07 10:47:00
4:49 AM,51.8,48.2,88,29.88,10.0,North,8.1,-,N/A,,Clear,360,2013-01-07 11:49:00
5:45 AM,51.8,48.2,88,29.89,10.0,NNE,8.1,-,N/A,,Clear,30,2013-01-07 12:45:00
6:47 AM,51.8,48.2,88,29.89,12.0,North,8.1,-,N/A,,Mostly Cloudy,10,2013-01-07 13:47:00
7:40 AM,55.4,53.6,94,29.89,10.0,NNE,6.9,-,N/A,,Mostly Cloudy,20,2013-01-07 14:40:00
8:40 AM,64.4,59.0,83,29.92,12.0,East,5.8,-,N/A,,Mostly Cloudy,80,2013-01-07 15:40:00
9:43 AM,66.2,60.8,83,29.92,12.0,East,6.9,-,N/A,,Mostly Cloudy,90,2013-01-07 16:43:00
10:42 AM,69.8,60.8,73,29.91,12.0,ESE,5.8,-,N/A,,Mostly Cloudy,110,2013-01-07 17:42:00
11:41 AM,71.6,60.8,69,29.88,12.0,SSE,5.8,-,N/A,,Overcast,160,2013-01-07 18:41:00
12:44 PM,73.4,62.6,69,29.86,12.0,SSW,8.1,-,N/A,,Overcast,210,2013-01-07 19:44:00
1:43 PM,75.2,60.8,61,29.84,12.0,South,9.2,-,N/A,,Overcast,190,2013-01-07 20:43:00
2:52 PM,73.4,59.0,61,29.84,12.0,WSW,10.4,-,N/A,,Overcast,250,2013-01-07 21:52:00
3:43 PM,71.6,59.0,64,29.84,12.0,WSW,10.4,-,N/A,,Overcast,240,2013-01-07 22:43:00
4:47 PM,69.8,59.0,68,29.84,15.0,WSW,8.1,-,N/A,,Overcast,240,2013-01-07 23:47:00
5:41 PM,66.2,57.2,73,29.84,12.0,SW,6.9,-,N/A,,Overcast,220,2013-01-08 00:41:00
6:44 PM,62.6,55.4,77,29.86,10.0,West,8.1,-,N/A,,Mostly Cloudy,280,2013-01-08 01:44:00
7:40 PM,59.0,53.6,82,29.86,10.0,NNE,4.6,-,N/A,,Mostly Cloudy,30,2013-01-08 02:40:00
8:40 PM,55.4,51.8,88,29.86,10.0,NNE,5.8,-,N/A,,Scattered Clouds,20,2013-01-08 03:40:00
9:43 PM,55.4,51.8,88,29.87,10.0,Calm,Calm,-,N/A,,Partly Cloudy,0,2013-01-08 04:43:00
10:41 PM,53.6,51.8,94,29.88,10.0,NNE,8.1,-,N/A,,Partly Cloudy,20,2013-01-08 05:41:00
11:41 PM,53.6,50.0,88,29.85,10.0,North,10.4,-,N/A,,Partly Cloudy,10,2013-01-08 06:41:00